OBJECT K, 59809

Orbit data source: Space-Track

You're viewing an Uncataloged Satellite

Recently launched and/or uncataloged satellites may have evolving metadata. Metadata may include but not limited to: Owner, Maufacturer, Bus, Motor, and Mission.

OBJECT K, 59809 is a satellite owned by Sitronics (CIS) in SSO that was launched on Thu, 16 May 2024 UTC via a SOYUZ-2-1B launch vehicle from the Plesetsk Missile And Space Complex (PKMTR). Unknown objects in Earth's orbit typically refer to objects detected orbiting the Earth but have not yet been identified or cataloged. These objects could be anything from previously untracked satellites, spent rocket stages, debris from satellite collisions, or even natural meteoroids temporarily captured by Earth's gravity.

Loading next visibility...
Identifier
59809, 2024-092K
Orbit
SSO
Last TLE update
8 hours ago
Origin
Manufacturer
Sputniks
Mission
Operational spacecraft
Bus & Motor
CUBESAT 3U?, Unknown motor
Mass
3 kg wet, 3 kg dry
Launch date (UTC)
2024-05-16 (1 year ago)
Launch vehicle
SOYUZ-2-1B
Launch site
Plesetsk Missile And Space Complex (PKMTR)
Object type
Unknown
Shape & HBR
Unknown
Radar Cross Section
Small (<0.1 m²)

Expand to show TLE details & history

TLE from 8 hours ago
0 OBJECT K
1 59809U 24092K   25201.05877944  .00009634  00000-0  41155-3 0  9993
2 59809  97.6242 319.7529 0009064 235.9144 124.1233 15.23053178 64467
Epoch: 2025-07-20T01:24Z
TLE epoch observation values (Epoch: 2025-07-20T01:24:38.543Z)
Latitude
0.00002°
Longitude
0.50532°
Altitude
503.226 km
Speed
7.611 km/s
True Right ascension
21h 19m 00s
True Declination
0° 00' 00"
Sunlit
Object was in full shadow at epoch
Visualization orbit readout
Latitude
-45.79768°
Longitude
8.69765°
Altitude
513.191 km
Speed
7.606 km/s
Apparent Right ascension
13h 52m 47s
Apparent Declination
-88° 55' 06"
Sunlit
Object is in full shadow
Visualization observer readout
Local Sidereal Time
21:58:40
Azimuth
181.213° SSW
Elevation
-40.475°
Doppler factor
1
Orbital elements
Apogee altitude
499.837 km
Perigee altitude
487.38 km
Semi-major axis
6,871.746 km
Eccentricity
0.00091
Inclination
97.6242°
RAAN
319.7529°
Arg. of periapsis
235.9144°
True anomaly
124.20923°
Mean anomaly
124.1233°
Eccentric anomaly
124.16627°
Mean motion
3.81015 °/min
Orbital period
94.48 mins
BSTAR
0.00041155
Loading maneuver chart data...
Loading SW <> Apogee altitude chart data...
Loading historical data...
Loading historical data...
Loading historical data...
Loading historical data...
Loading historical data...
Loading historical data...
Loading historical data...
|